Santa Maria, CA

11:30 AM PDT on September 29, 2016 (GMT -0700)
Santa Maria Public Airport / Captain G. Allan Hancock Field

Weather History for KSMX - February, 2014

Change the Weather History Date:

Tuesday, February 11, 2014

  Actual Average Record
Temperature  
Mean Temperature 63 °F 53 °F  
Max Temperature 74 °F 64 °F 84 °F (1971)
Min Temperature 51 °F 41 °F 29 °F (1965)
Degree Days  
Heating Degree Days 2 12  
Month to date heating degree days 116 140  
Since 1 July heating degree days 1050 1632  
Cooling Degree Days 0 0  
Month to date cooling degree days 0 0  
Year to date cooling degree days 2 0  
Growing Degree Days 13 (Base 50)    
Moisture  
Dew Point 48 °F    
Average Humidity 62    
Maximum Humidity 83    
Minimum Humidity 41    
Precipitation  
Precipitation 0.00 in 0.10 in 1.36 in (1973)
Month to date precipitation 0.43 1.14  
Year to date precipitation 0.44 3.89  
Since 1 July precipitation 0.94  
Sea Level Pressure  
Sea Level Pressure 30.13 in    
Wind  
Wind Speed 13 mph (NNW)    
Max Wind Speed 17 mph    
Max Gust Speed 23 mph    
Visibility 10 miles    
Events      
T = Trace of Precipitation, MM = Missing Value Source: NWS Daily Summary

Daily Weather History Graph

Daily Weather History Graph

Search for Another Location

Airport or City:

Trip Planner

Search our weather history database for the weather conditions in past years. The results will help you decide how hot, cold, wet, or windy it might be!

Date:

Astronomy

Feb. 11, 2014 Rise Set
Actual Time 6:51 AM PST 5:40 PM PST
Civil Twilight 6:25 AM PST 6:06 PM PST
Nautical Twilight 5:55 AM PST 6:36 PM PST
Astronomical Twilight 5:26 AM PST 7:06 PM PST
Moon 3:08 PM PST (2/11) 4:28 AM PST (2/11)
Length of Visible Light 11h 41m
Length of Day
10h 49m
Waxing Gibbous, 91% of the Moon is Illuminated
Feb 11
Waxing Gibbous
Feb 14
Full
Feb 22
Last Quarter
Mar 1
New
Mar 8
First Quarter

Hourly Weather History & Observations

Time (PST) Temp. Dew Point Humidity Pressure Visibility Wind Dir Wind Speed Gust Speed Precip Events Conditions
12:51 AM 61.0 °F 46.9 °F 60% 30.15 in 10.0 mi North 11.5 mph 17.3 mph N/A   Clear
1:51 AM 60.1 °F 46.0 °F 60% 30.14 in 10.0 mi North 16.1 mph 21.9 mph N/A   Clear
2:51 AM 61.0 °F 46.0 °F 58% 30.13 in 10.0 mi NNE 15.0 mph 23.0 mph N/A   Clear
3:51 AM 57.0 °F 45.0 °F 64% 30.13 in 10.0 mi NNW 15.0 mph - N/A   Clear
4:51 AM 59.0 °F 45.0 °F 60% 30.13 in 10.0 mi North 13.8 mph - N/A   Clear
5:51 AM 59.0 °F 45.0 °F 60% 30.12 in 10.0 mi North 17.3 mph - N/A   Clear
6:51 AM 59.0 °F 45.0 °F 60% 30.14 in 10.0 mi North 17.3 mph - N/A   Clear
7:51 AM 62.1 °F 45.0 °F 53% 30.14 in 10.0 mi NNE 11.5 mph - N/A   Clear
8:51 AM 66.0 °F 46.0 °F 48% 30.14 in 10.0 mi NNE 9.2 mph 20.7 mph N/A   Clear
9:51 AM 69.1 °F 46.0 °F 44% 30.15 in 10.0 mi North 15.0 mph 21.9 mph N/A   Clear
10:51 AM 71.1 °F 46.0 °F 41% 30.17 in 10.0 mi NNW 16.1 mph - N/A   Scattered Clouds
11:51 AM 72.0 °F 46.9 °F 41% 30.14 in 10.0 mi NNW 12.7 mph - N/A   Mostly Cloudy
12:51 PM 72.0 °F 46.9 °F 41% 30.12 in 10.0 mi NW 15.0 mph - N/A   Clear
1:51 PM 70.0 °F 51.1 °F 51% 30.09 in 10.0 mi WNW 15.0 mph - N/A   Mostly Cloudy
2:51 PM 66.0 °F 51.1 °F 59% 30.08 in 10.0 mi WNW 15.0 mph - N/A   Mostly Cloudy
3:51 PM 68.0 °F 51.1 °F 55% 30.08 in 10.0 mi WNW 15.0 mph - N/A   Mostly Cloudy
4:51 PM 63.0 °F 48.9 °F 60% 30.09 in 10.0 mi WNW 13.8 mph - N/A   Mostly Cloudy
5:51 PM 55.9 °F 50.0 °F 80% 30.10 in 8.0 mi WNW 5.8 mph - N/A   Mostly Cloudy
6:51 PM 55.9 °F 50.0 °F 80% 30.10 in 10.0 mi WNW 8.1 mph - N/A   Mostly Cloudy
7:51 PM 55.9 °F 48.9 °F 77% 30.12 in 10.0 mi Calm Calm - N/A   Clear
8:51 PM 55.9 °F 50.0 °F 80% 30.13 in 10.0 mi NNW 5.8 mph - N/A   Clear
9:51 PM 54.0 °F 48.9 °F 83% 30.15 in 9.0 mi North 4.6 mph - N/A   Clear
10:51 PM 53.1 °F 48.0 °F 83% 30.15 in 9.0 mi Calm Calm - N/A   Clear
11:51 PM 53.1 °F 46.0 °F 77% 30.16 in 10.0 mi NW 6.9 mph - N/A   Clear